User: anonymous   Login
Location: Ladysmith
(45.4630°N, 91.1040°W)
Time: 00:09:11
(UTC-06:00)
Language:

SO-67 - Orbit

View from above orbital plane
View from above orbital plane
View from above satellite
View from above satellite

Ground track
Ground track

The orbit data is extracted from the following two-line orbital elements,

1 35870U 09049F   17323.85427347  .00007980  00000-0  11791-3 0  9997
2 35870  97.0958 339.2888 0001644 137.2910 345.7546 15.55594553457403
Epoch (UTC): 19 November 2017 20:30:09
Eccentricity: 0.0001644
inclination: 97.0958°
perigee height: 399 km
apogee height: 401 km
right ascension of ascending node: 339.2888°
argument of perigee: 137.2910°
revolutions per day: 15.55594553
mean anomaly at epoch: 345.7546°
orbit number at epoch: 45740

The dashed part of the orbit path shows where the satellite is in the earth's shadow,  

DLR